Probability
0 0 0 0 0 0 0 0 0 0 0 0 0 0 0 0 0 0 0 0 0 0 0 0 0 0 0 0 0 0 0 0 0 0 0 0 0 0 0 0 0 0 0 0
0 0 0 0 0 0 0 0 0 0 0 0 0 0 0 0 0 0 0 0 0 0 0 0 0 0 0 0 0 0 0 0 0 0 0 0 0 0 0 0 0 0 0 0
0 0 0 0 0 0 0 0 0 0 0 0 0 0 0 0 0 0 0 0 0 0 0 0 0 0 0 0 0 0 0 0 0 0 0 0 0 0 0 0 0 0 0 0
0 0 0 0 0 0 0 0 0 0 0 0 0 0 0 0 0 0 0 0 0 0 0 0 0 0 0 0 0 0 0 0 0 0 0 0 0 0 0 0 0 0 0 0
0 0 0 0 0 0 0 0 0 0 0 0 0 0 0 0 0 0 0 0 0 0 0 0 0 0 0 0 0 0 0 0 0 0 0 0 0 0 0 0 0 0 0 0
0 0 0 0 0 0 0 0 0 0 0 0 0 0 0 0 0 0 0 0 0 0 0 0 0 0 0 0 0 0 0 0 0 0 0 0 0 0 0 0 0 0 0 0
0 0 0 0 0 0 0 0 0 0 0 0 0 0 0 0 0 0 0 0 0 0 0 0 0 0 0 0 0 0 0 0 0 0 0 0 0 0 0 0 0 0 0 0
0 0 0 0 0 0 0 0 0 0 0 0 0 0 0 0 0 0 0 0 0 0 0 0 0 0 0 0 0 0 0 0 0 0 0 0 0 0 0 0 0 0 0 0
0 0 0 0 0 0 0 0 0 0 0 0 0 0 0 0 0 0 0 0 0 0 0 0 0 0 0 0 0 0 0 0 0 0 0 0 0 0 0 0 0 0 0 0
0 0 0 0 0 0 0 0 0 0 0 0 0 0 0 0 0 0 0 0 0 0 0 0 0 0 0 0 0 0 0 0 0 0 0 0 0 0 0 0 0 0 0 0
0 0 0 0 0 0 0 0 0 0 0 0 0 0 0 0 0 0 0 0 0 0 0 0 0 0 0 0 0 0 0 0 0 0 0 0 0 0 0 0 0 0 0 0
0 0 0 0 0 0 0 0 0 0 0 0 0 0 0 0 0 0 0 0 0 0 0 0 0 0 0 0 0 0 0 0 0 0 0 0 0 0 0 0 0 0 0 0
0 0 0 0 0 0 0 0 0 0 0 0 0 0 0 0 0 0 0 0 0 0 0 0 0 0 0 0 0 0 0 0 0 0 0 0 0 0 0 0 0 0 0 0
0 0 0 0 0 0 0 0 0 0 0 0 0 0 0 0 0 0 0 0 0 0 0 0 0 0 0 0 0 0 0 0 0 0 0 0 0 0 0 0 0 0 0 0
0 0 0 0 0 0 0 0 0 0 0 0 0 0 0 0 0 0 0 0 0 0 0 0 0 0 0 0 0 0 0 0 0 0 0 0 0 0 0 0 0 0 0 0
0 0 0 0 0 0 0 0 0 0 0 0 0 0 0 0 0 0 0 0 0 0 0 0 0 0 0 0 0 0 0 0 0 0 0 0 0 0 0 0 0 0 0 0
0 0 0 0 0 0 0 0 0 0 0 0 0 0 0 0 0 0 0 0 0 0 0 0 0 0 0 0 0 0 0 0 0 0 0 0 0 0 0 0 0 0 0 0
0 0 0 0 0 0 0 0 0 0 0 0 0 0 0 0 0 0 0 0 0 0 0 0 0 0 0 0 0 0 0 0 0 0 0 0 0 0 0 0 0 0 0 0
0 0 0 0 0 0 0 0 0 0 0 0 0 0 0 0 0 0 0 0 0 0 0 0 0 0 0 0 0 0 0 0 0 0 0 0 0 0 0 0 0 0 0 0
0 0 0 0 0 0 0 0 0 0 0 0 0 0 0 0 0 0 0 0 0 0 0 0 0 0 0 0 0 0 0 0 0 0 0 0 0 0 0 0 0 0 0 0
0 0 0 0 0 0 0 0 0 0 0 0 0 0 0 0 0 0 0 0 0 0 0 0 0 0 0 0 0 0 0 0 0 0 0 0 0 0 0 0 0 0 0 0
0 0 0 0 0 0 0 0 0 0 0 0 0 0 0 0 0 0 0 0 0 0 0 0 0 0 0 0 0 0 0 0 0 0 0 0 0 0 0 0 0 0 0 0
0 0 0 0 0 0 0 0 0 0 0 0 0 0 0 0 0 0 0 0 0 0 0 0 0 0 0 0 0 0 0 0 0 0 0 0 0 0 0 0 0 0 0 0
0 0 0 0 0 0 0 0 0 0 0 0 0 0 0 0 0 0 0 0 0 0 0 0 0 0 0 0 0 0 0 0 0 0 0 0 0 0 0 0 0 0 0 0
0 0 0 0 0 0 0 0 0 0 0 0 0 0 0 0 0 0 0 0 0 0 0 0 0 0 0 0 0 0 0 0 0 0 0 0 0 0 0 0 0 0 0 0
0 0 0 0 0 0 0 0 0 0 0 0 0 0 0 0 0 0 0 0 0 0 0 0 0 0 0 0 0 0 0 0 0 0 0 0 0 0 0 0 0 0 0 0
Wind_Speed
6 8 5 2 1 3 5 5 4 1 2 2 2 0 1 2 2 2 3 3 3 4 4 5 5 5 5 5 4 3 2 2 1 1 0 0 1 1 1 1 2 2 3 3
7 6 3 1 3 6 5 5 2 2 3 2 1 2 2 0 0 1 1 2 3 4 5 6 5 5 5 4 4 3 3 2 1 0 0 0 0 0 1 1 2 2 3 3
7 2 3 4 5 6 5 3 3 2 2 3 2 3 2 2 1 1 1 1 2 3 4 5 5 5 5 5 4 3 3 3 3 1 1 1 1 1 1 2 2 3 3 3
5 4 3 6 5 3 3 1 3 3 3 1 1 2 4 2 2 2 2 2 3 3 3 4 4 5 5 4 4 4 3 3 3 2 1 1 1 0 1 1 2 3 4 3
4 4 5 5 3 3 2 2 4 3 3 2 2 1 6 2 3 4 3 3 3 3 3 3 3 4 5 4 4 3 3 3 3 3 2 1 0 0 1 2 2 2 3 3
3 2 3 2 2 2 2 4 5 4 4 1 1 2 6 3 4 3 3 3 3 3 3 3 3 3 4 4 4 3 3 3 3 2 2 2 1 1 1 2 2 2 2 3
4 3 3 2 2 4 3 4 4 5 4 3 1 2 8 4 3 3 3 4 3 2 2 3 3 4 4 5 4 4 3 3 3 3 3 2 1 1 1 1 2 2 2 2
3 2 3 4 2 1 1 3 4 3 3 4 1 5 7 2 2 2 3 2 2 2 2 2 3 3 3 4 4 4 3 3 3 3 3 2 2 1 1 2 2 2 2 2
4 1 2 2 1 2 3 2 2 5 2 2 4 6 8 2 2 2 2 2 2 2 2 2 3 3 3 3 3 2 3 3 3 3 3 3 3 3 2 2 2 2 2 2
4 3 2 2 2 4 2 4 3 4 3 2 5 5 5 4 4 3 3 3 3 2 2 3 3 3 2 2 2 2 2 2 2 2 2 2 3 2 2 2 3 3 3 3
2 4 2 2 1 1 2 3 3 3 3 4 3 8 5 5 4 4 5 4 3 3 3 3 3 3 2 2 2 2 2 2 3 2 2 2 2 2 2 2 3 3 3 4
2 4 1 2 1 0 1 3 4 3 2 3 2 9 3 4 3 4 4 4 3 3 3 3 3 2 2 2 2 2 2 2 2 2 1 1 2 2 2 2 3 3 3 3
3 5 3 4 3 1 1 2 3 4 4 4 4 9 2 0 1 3 4 4 3 3 3 2 2 2 2 2 2 2 1 2 2 2 1 2 2 2 2 2 2 2 2 3
4 3 5 7 5 4 4 4 5 5 4 5 9 10 7 4 4 4 4 4 4 4 3 3 3 3 3 2 2 2 2 2 1 1 1 1 2 2 2 2 2 2 2 3
4 3 2 2 1 1 4 5 7 9 9 9 9 9 13 8 6 6 5 4 4 4 4 4 4 4 3 3 2 2 2 2 1 1 1 2 2 1 1 2 2 2 2 2
3 4 2 2 1 1 5 8 10 10 8 9 8 13 12 6 4 5 6 5 6 6 6 5 5 4 4 3 3 2 3 2 1 1 2 2 1 1 1 2 1 2 2 2
3 5 3 3 3 4 9 12 13 9 10 10 14 14 6 4 6 7 6 7 8 8 7 6 6 6 5 4 3 3 3 2 1 2 2 2 2 2 2 1 1 1 2 2
6 5 3 1 3 7 9 2 8 8 9 12 11 9 7 7 4 5 6 7 8 8 7 7 6 5 4 3 3 3 2 1 2 2 2 2 2 2 2 1 1 2 1 1
3 6 5 3 2 11 10 4 7 8 10 12 15 13 9 2 3 7 8 9 10 9 7 6 5 5 4 4 3 2 2 2 2 3 3 3 2 2 2 2 2 2 1 2
4 4 5 4 4 9 8 3 4 4 8 7 12 13 8 6 3 7 4 5 6 6 5 4 3 3 3 4 3 3 3 3 4 4 4 3 2 3 3 3 2 1 1 2
4 3 4 5 7 13 8 4 6 5 9 3 8 9 9 10 9 5 2 3 3 4 4 3 3 4 4 3 3 3 4 5 5 3 3 2 2 3 3 2 2 1 1 1
11 9 9 7 6 15 7 10 12 11 3 3 6 7 9 9 6 4 4 4 4 3 3 3 3 4 3 3 4 4 5 5 3 2 2 3 3 2 2 2 2 1 1 2
11 12 11 14 13 5 10 11 8 3 3 4 5 6 7 6 7 6 6 6 5 5 5 4 4 4 3 3 4 6 6 3 3 2 3 3 2 2 2 2 2 2 1 2
7 4 5 8 13 9 9 9 7 6 7 5 4 5 6 7 7 7 6 6 6 6 5 4 4 5 5 4 5 6 4 3 3 4 4 3 2 2 2 2 2 2 3 3
10 10 7 10 9 6 9 13 14 11 8 7 7 6 7 7 8 8 7 7 7 6 5 4 5 6 7 5 5 5 4 3 4 4 4 3 3 3 3 3 3 4 4 4
10 13 13 13 10 9 9 7 9 10 11 11 9 8 7 8 9 8 8 7 6 6 5 4 5 6 6 5 5 5 4 4 5 4 4 3 3 3 3 3 3 6 6 7
Wind_Direction
24 57 43 347 354 123 115 106 103 58 4 82 111 194 302 336 27 4 347 351 353 338 332 348 350 351 2 4 1 360 8 358 9 23 7 4 340 351 10 22 21 15 10 9
52 42 323 321 85 87 94 98 82 40 17 82 93 297 290 309 260 251 291 313 322 332 343 345 353 357 359 354 348 359 350 351 347 300 275 234 317 357 352 10 17 16 15 10
87 347 329 71 67 78 60 113 144 129 31 49 36 328 314 313 355 1 351 324 334 326 325 332 344 346 350 350 344 339 344 352 354 359 40 40 47 30 22 2 5 8 9 10
64 360 37 62 44 61 83 92 130 114 90 5 49 292 288 293 307 310 299 309 307 314 322 327 342 342 337 329 342 345 350 3 5 12 62 82 91 335 316 340 1 6 11 8
50 16 38 53 17 42 113 86 96 91 101 44 29 154 284 331 287 283 279 277 280 290 295 308 325 330 331 337 346 346 354 6 12 17 23 70 48 307 354 15 11 7 3 2
67 35 39 29 12 49 116 80 71 57 65 2 263 174 273 241 236 263 284 279 280 289 297 309 332 344 341 351 359 358 6 3 10 21 24 37 25 348 18 10 354 349 350 353
26 28 14 3 50 26 58 83 43 15 14 267 250 218 251 252 240 228 249 273 291 303 306 324 341 344 342 350 357 357 5 1 7 18 21 25 19 5 350 334 338 341 344 341
94 354 355 9 45 97 64 106 138 177 229 285 297 241 254 250 261 251 250 261 299 317 320 322 320 320 326 335 348 358 356 356 10 15 8 7 14 11 358 358 346 337 330 333
132 209 343 13 354 84 105 92 119 118 83 316 281 285 294 249 274 265 266 284 286 292 311 316 320 322 321 323 336 350 354 356 6 7 14 13 16 19 5 1 9 351 342 348
127 125 322 322 49 27 81 133 96 108 124 290 298 278 257 251 246 250 257 260 269 291 312 317 315 310 310 312 331 2 11 357 4 15 17 12 8 10 7 14 12 5 354 356
98 115 348 28 122 172 82 89 96 101 142 160 271 273 229 217 212 219 239 246 255 272 284 290 298 307 314 333 348 357 2 7 9 10 12 14 5 4 11 16 5 2 2 2
109 110 119 261 261 214 175 170 152 150 212 191 212 268 265 215 222 214 236 247 258 268 274 277 289 308 319 324 334 342 347 351 338 346 9 11 4 7 6 355 352 360 359 357
134 112 76 353 334 330 248 195 165 130 124 165 193 261 295 258 249 226 230 249 257 267 276 284 287 288 291 298 307 311 317 312 322 349 3 360 356 355 343 335 341 356 357 357
110 121 165 196 221 191 212 202 174 150 170 207 226 249 275 260 252 255 247 246 252 255 255 258 264 266 270 276 280 286 296 305 319 339 342 327 314 310 310 327 343 348 354 358
108 156 211 250 269 215 228 216 195 201 203 207 231 233 252 244 229 236 238 245 254 260 260 254 252 256 260 264 270 274 283 295 301 301 292 278 290 307 327 337 341 352 357 350
105 138 126 301 3 285 264 240 216 222 224 234 253 265 254 249 227 237 239 234 243 251 251 250 250 252 254 253 255 262 266 272 264 255 269 284 304 314 313 313 329 348 348 351
135 128 130 265 318 357 271 227 200 205 210 195 221 240 239 240 231 229 232 229 236 242 244 242 240 240 241 241 234 239 249 258 241 250 269 282 284 289 291 306 331 328 327 345
138 127 128 125 49 246 245 184 188 208 232 214 231 242 230 231 247 242 227 223 236 237 238 238 233 234 235 228 224 229 236 235 237 252 263 268 265 270 287 304 295 294 308 312
136 135 123 132 232 277 288 224 175 191 258 219 222 237 241 221 336 278 236 215 225 231 232 230 227 226 229 227 215 204 230 233 238 250 257 255 242 246 257 262 267 274 287 289
66 97 120 141 193 245 250 184 165 127 278 233 201 220 214 147 218 256 225 199 217 226 225 225 226 220 229 232 195 195 229 236 245 248 251 252 238 232 238 245 253 260 257 269
146 136 161 177 225 259 245 158 137 175 242 218 188 200 181 189 214 221 177 189 203 216 224 216 212 222 231 215 183 212 231 240 246 247 251 252 241 234 239 249 251 256 251 278
173 171 186 164 206 251 192 152 190 217 227 180 187 192 192 213 233 233 227 224 223 233 235 218 219 237 239 204 193 219 237 245 248 240 241 247 245 237 233 237 246 241 239 255
201 191 184 193 214 237 176 200 217 210 218 214 198 199 193 212 232 235 233 234 234 233 233 226 222 239 247 222 203 221 240 236 229 230 240 246 248 242 234 227 234 237 230 241
230 199 194 241 254 243 231 243 250 233 229 232 218 204 193 214 230 235 235 237 238 237 231 224 219 232 245 236 224 228 237 223 211 228 242 240 238 247 240 229 222 223 226 233
201 174 201 245 260 280 253 232 237 239 239 242 238 223 217 220 234 234 238 238 237 239 235 218 218 230 242 239 239 238 228 206 215 232 239 236 231 234 238 233 227 227 228 220
184 181 188 222 211 204 232 220 214 219 228 228 230 236 229 220 234 239 241 239 237 238 233 229 230 235 242 241 246 246 225 205 209 230 236 232 229 231 232 242 261 246 243 251